| time (UTC) | temp F | wind direction | speed MPH | gust MPH | rain 1hr in | rain 24hr in | rain mn in | humidity % | barometer mb |
| 20260509000242 | 60 | 98 | 0.0 | 1.0 | 0.00 | 0.00 | 0.00 | 35 | 981.7 |
| 20260508235739 | 60 | 99 | 0.0 | 0.0 | 0.00 | 0.00 | 0.00 | 35 | 981.8 |
| 20260508235236 | 60 | 105 | 0.0 | 0.0 | 0.00 | 0.00 | 0.00 | 34 | 981.8 |
| 20260508234733 | 60 | 277 | 0.0 | 2.0 | 0.00 | 0.00 | 0.00 | 32 | 981.9 |
| 20260508234230 | 61 | 286 | 0.0 | 0.0 | 0.00 | 0.00 | 0.00 | 35 | 981.8 |
| 20260508233729 | 61 | 286 | 0.0 | 1.0 | 0.00 | 0.00 | 0.00 | 33 | 981.8 |
| 20260508233227 | 62 | 261 | 0.0 | 3.0 | 0.00 | 0.00 | 0.00 | 32 | 981.8 |
| 20260508232724 | 62 | 300 | 0.0 | 3.0 | 0.00 | 0.00 | 0.00 | 35 | 981.9 |
| 20260508232220 | 62 | 243 | 0.0 | 3.0 | 0.00 | 0.00 | 0.00 | 32 | 981.8 |
| 20260508231718 | 63 | 23 | 0.0 | 2.0 | 0.00 | 0.00 | 0.00 | 32 | 981.8 |
| 20260508231215 | 62 | 225 | 0.0 | 3.0 | 0.00 | 0.00 | 0.00 | 34 | 981.8 |
| 20260508230712 | 63 | 225 | 2.0 | 6.0 | 0.00 | 0.00 | 0.00 | 33 | 982.0 |
| 20260508230208 | 63 | 348 | 0.0 | 3.0 | 0.00 | 0.00 | 0.00 | 32 | 981.9 |
| 20260508225706 | 62 | 99 | 0.0 | 2.0 | 0.00 | 0.00 | 0.00 | 35 | 982.0 |
| 20260508225202 | 63 | 206 | 1.0 | 3.0 | 0.00 | 0.00 | 0.00 | 33 | 982.0 |
| 20260508224700 | 62 | 251 | 1.0 | 2.0 | 0.00 | 0.00 | 0.00 | 33 | 981.9 |
| 20260508224157 | 62 | 214 | 2.0 | 3.0 | 0.00 | 0.00 | 0.00 | 34 | 982.0 |
| 20260508223655 | 62 | 185 | 1.0 | 6.0 | 0.00 | 0.00 | 0.00 | 33 | 982.0 |
| 20260508223152 | 62 | 278 | 0.0 | 3.0 | 0.00 | 0.00 | 0.00 | 34 | 982.1 |
| 20260508222649 | 62 | 45 | 2.0 | 3.0 | 0.00 | 0.00 | 0.00 | 33 | 982.2 |
| 20260508222146 | 62 | 188 | 0.0 | 3.0 | 0.00 | 0.00 | 0.00 | 34 | 982.1 |
| 20260508221642 | 62 | 241 | 0.0 | 2.0 | 0.00 | 0.00 | 0.00 | 35 | 982.3 |
| 20260508221138 | 62 | 209 | 0.0 | 5.0 | 0.00 | 0.00 | 0.00 | 35 | 982.1 |
| 20260508220635 | 63 | 334 | 3.0 | 11.0 | 0.00 | 0.00 | 0.00 | 34 | 982.1 |
| 20260508220132 | 65 | 243 | 2.0 | 3.0 | 0.00 | 0.00 | 0.00 | 32 | 982.0 |
| 20260508215628 | 65 | 236 | 0.0 | 7.0 | 0.00 | 0.00 | 0.00 | 32 | 982.3 |
| 20260508215125 | 64 | 221 | 0.0 | 7.0 | 0.00 | 0.00 | 0.00 | 31 | 982.3 |
| 20260508214622 | 64 | 180 | 1.0 | 3.0 | 0.00 | 0.00 | 0.00 | 31 | 982.4 |
| 20260508214119 | 64 | 288 | 3.0 | 3.0 | 0.00 | 0.00 | 0.00 | 31 | 982.4 |
| 20260508213616 | 63 | 296 | 3.0 | 4.0 | 0.00 | 0.00 | 0.00 | 32 | 982.2 |
| 20260508213112 | 63 | 348 | 0.0 | 4.0 | 0.00 | 0.00 | 0.00 | 31 | 982.3 |
| 20260508212609 | 63 | 243 | 1.0 | 4.0 | 0.00 | 0.00 | 0.00 | 30 | 982.3 |
| 20260508212105 | 64 | 330 | 4.0 | 5.0 | 0.00 | 0.00 | 0.00 | 30 | 982.5 |
| 20260508211600 | 63 | 285 | 2.0 | 4.0 | 0.00 | 0.00 | 0.00 | 30 | 982.4 |
| 20260508211057 | 64 | 20 | 0.0 | 5.0 | 0.00 | 0.00 | 0.00 | 30 | 982.4 |
| 20260508210554 | 63 | 270 | 0.0 | 3.0 | 0.00 | 0.00 | 0.00 | 31 | 982.6 |
| 20260508210051 | 64 | 209 | 0.0 | 4.0 | 0.00 | 0.00 | 0.00 | 30 | 982.5 |
| 20260508205548 | 64 | 236 | 2.0 | 3.0 | 0.00 | 0.00 | 0.00 | 30 | 982.6 |
| 20260508205044 | 63 | 250 | 2.0 | 3.0 | 0.00 | 0.00 | 0.00 | 30 | 982.5 |
| 20260508204541 | 63 | 235 | 2.0 | 10.0 | 0.00 | 0.00 | 0.00 | 31 | 982.6 |
| 20260508204037 | 63 | 246 | 3.0 | 4.0 | 0.00 | 0.00 | 0.00 | 33 | 982.7 |
| 20260508203533 | 63 | 249 | 1.0 | 7.0 | 0.00 | 0.00 | 0.00 | 32 | 982.9 |
| 20260508203029 | 62 | 300 | 1.0 | 3.0 | 0.00 | 0.00 | 0.00 | 32 | 982.9 |
| 20260508202526 | 62 | 206 | 3.0 | 6.0 | 0.00 | 0.00 | 0.00 | 32 | 983.2 |
| 20260508202023 | 62 | 285 | 6.0 | 7.0 | 0.00 | 0.00 | 0.00 | 32 | 983.1 |
| 20260508201520 | 62 | 321 | 4.0 | 5.0 | 0.00 | 0.00 | 0.00 | 30 | 983.1 |
| 20260508201016 | 63 | 107 | 2.0 | 4.0 | 0.00 | 0.00 | 0.00 | 31 | 983.2 |
| 20260508200514 | 63 | 344 | 0.0 | 5.0 | 0.00 | 0.00 | 0.00 | 31 | 983.2 |
| 20260508200009 | 62 | 320 | 2.0 | 3.0 | 0.00 | 0.00 | 0.00 | 32 | 983.4 |
| 20260508195506 | 61 | 157 | 3.0 | 7.0 | 0.00 | 0.00 | 0.00 | 33 | 983.4 |
| 20260508195002 | 62 | 203 | 2.0 | 7.0 | 0.00 | 0.00 | 0.00 | 32 | 983.6 |
| 20260508194459 | 62 | 212 | 0.0 | 5.0 | 0.00 | 0.00 | 0.00 | 31 | 983.8 |
| 20260508193956 | 62 | 225 | 2.0 | 4.0 | 0.00 | 0.00 | 0.00 | 32 | 983.8 |
| 20260508193453 | 60 | 180 | 0.0 | 2.0 | 0.00 | 0.00 | 0.00 | 32 | 984.0 |
| 20260508192949 | 61 | 330 | 2.0 | 5.0 | 0.00 | 0.00 | 0.00 | 32 | 984.0 |
| 20260508192446 | 61 | 252 | 3.0 | 6.0 | 0.00 | 0.00 | 0.00 | 33 | 984.2 |
| 20260508191943 | 61 | 159 | 4.0 | 8.0 | 0.00 | 0.00 | 0.00 | 31 | 984.0 |
| 20260508191440 | 61 | 234 | 1.0 | 5.0 | 0.00 | 0.00 | 0.00 | 33 | 984.1 |
| 20260508190937 | 61 | 191 | 2.0 | 3.0 | 0.00 | 0.00 | 0.00 | 31 | 984.1 |
| 20260508190434 | 61 | 261 | 0.0 | 10.0 | 0.00 | 0.00 | 0.00 | 32 | 984.2 |
| 20260508185930 | 61 | 225 | 2.0 | 5.0 | 0.00 | 0.00 | 0.00 | 30 | 984.1 |
| 20260508185428 | 61 | 243 | 3.0 | 5.0 | 0.00 | 0.00 | 0.00 | 32 | 984.3 |
| 20260508184925 | 61 | 199 | 2.0 | 3.0 | 0.00 | 0.00 | 0.00 | 30 | 984.3 |
| 20260508184423 | 61 | 237 | 5.0 | 9.0 | 0.00 | 0.00 | 0.00 | 31 | 984.4 |
| 20260508183919 | 61 | 231 | 6.0 | 7.0 | 0.00 | 0.00 | 0.00 | 32 | 984.4 |
| 20260508183416 | 60 | 192 | 0.0 | 7.0 | 0.00 | 0.00 | 0.00 | 30 | 984.6 |
| 20260508182911 | 60 | 293 | 2.0 | 5.0 | 0.00 | 0.00 | 0.00 | 31 | 984.4 |
| 20260508182409 | 60 | 217 | 6.0 | 11.0 | 0.00 | 0.00 | 0.00 | 31 | 984.5 |
| 20260508181903 | 60 | 228 | 4.0 | 6.0 | 0.00 | 0.00 | 0.00 | 31 | 984.6 |
| 20260508181401 | 60 | 218 | 2.0 | 5.0 | 0.00 | 0.00 | 0.00 | 31 | 984.5 |
| 20260508180858 | 59 | 0 | 1.0 | 3.0 | 0.00 | 0.00 | 0.00 | 30 | 984.5 |
| 20260508180355 | 61 | 340 | 3.0 | 6.0 | 0.00 | 0.00 | 0.00 | 29 | 984.8 |
| 20260508175850 | 61 | 213 | 2.0 | 8.0 | 0.00 | 0.00 | 0.00 | 30 | 984.9 |
| 20260508175347 | 63 | 189 | 0.0 | 7.0 | 0.00 | 0.00 | 0.00 | 27 | 984.8 |
| 20260508174846 | 61 | 287 | 2.0 | 3.0 | 0.00 | 0.00 | 0.00 | 28 | 984.9 |
| 20260508174343 | 61 | 159 | 0.0 | 4.0 | 0.00 | 0.00 | 0.00 | 31 | 985.2 |
| 20260508173839 | 61 | 245 | 3.0 | 5.0 | 0.00 | 0.00 | 0.00 | 30 | 985.3 |
| 20260508173336 | 62 | 279 | 0.0 | 3.0 | 0.00 | 0.00 | 0.00 | 30 | 985.3 |
| 20260508172832 | 61 | 41 | 4.0 | 5.0 | 0.00 | 0.00 | 0.00 | 29 | 985.0 |
| 20260508172329 | 59 | 157 | 1.0 | 6.0 | 0.00 | 0.00 | 0.00 | 30 | 985.5 |
| 20260508171826 | 62 | 231 | 4.0 | 5.0 | 0.00 | 0.00 | 0.00 | 30 | 985.5 |
| 20260508171322 | 61 | 239 | 2.0 | 5.0 | 0.00 | 0.00 | 0.00 | 28 | 985.5 |
| 20260508170819 | 62 | 107 | 6.0 | 6.0 | 0.00 | 0.00 | 0.00 | 30 | 985.6 |
| 20260508170317 | 61 | 191 | 0.0 | 5.0 | 0.00 | 0.00 | 0.00 | 31 | 985.7 |
| 20260508165814 | 61 | 270 | 3.0 | 5.0 | 0.00 | 0.00 | 0.00 | 32 | 985.6 |
| 20260508165311 | 61 | 187 | 6.0 | 6.0 | 0.00 | 0.00 | 0.00 | 32 | 985.8 |
| 20260508164807 | 61 | 8 | 0.0 | 4.0 | 0.00 | 0.00 | 0.00 | 27 | 985.8 |
| 20260508164303 | 61 | 257 | 3.0 | 5.0 | 0.00 | 0.00 | 0.00 | 27 | 985.9 |
| 20260508163802 | 60 | 121 | 2.0 | 6.0 | 0.00 | 0.00 | 0.00 | 33 | 985.9 |
| 20260508163259 | 59 | 234 | 1.0 | 3.0 | 0.00 | 0.00 | 0.00 | 29 | 985.9 |
| 20260508162754 | 59 | 14 | 2.0 | 6.0 | 0.00 | 0.00 | 0.00 | 27 | 986.2 |
| 20260508162251 | 58 | 286 | 1.0 | 7.0 | 0.00 | 0.00 | 0.00 | 30 | 986.4 |
| 20260508161749 | 59 | 292 | 5.0 | 5.0 | 0.00 | 0.00 | 0.00 | 29 | 986.0 |
| 20260508161246 | 61 | 195 | 3.0 | 4.0 | 0.00 | 0.00 | 0.00 | 30 | 986.1 |
| 20260508160744 | 60 | 276 | 1.0 | 5.0 | 0.00 | 0.00 | 0.00 | 29 | 986.4 |
| 20260508160242 | 60 | 106 | 0.0 | 2.0 | 0.00 | 0.00 | 0.00 | 31 | 986.2 |
| 20260508155738 | 58 | 266 | 2.0 | 4.0 | 0.00 | 0.00 | 0.00 | 33 | 986.2 |
| 20260508155235 | 59 | 312 | 2.0 | 4.0 | 0.00 | 0.00 | 0.00 | 32 | 986.5 |
| 20260508154732 | 59 | 217 | 7.0 | 7.0 | 0.00 | 0.00 | 0.00 | 32 | 986.6 |
| 20260508154230 | 58 | 5 | 2.0 | 5.0 | 0.00 | 0.00 | 0.00 | 31 | 986.4 |
| 20260508153726 | 59 | 103 | 2.0 | 5.0 | 0.00 | 0.00 | 0.00 | 33 | 986.4 |
| 20260508153223 | 57 | 243 | 3.0 | 7.0 | 0.00 | 0.00 | 0.00 | 32 | 986.4 |
| 20260508152720 | 57 | 349 | 1.0 | 5.0 | 0.00 | 0.00 | 0.00 | 34 | 986.4 |
| 20260508152215 | 57 | 354 | 1.0 | 4.0 | 0.00 | 0.00 | 0.00 | 32 | 986.5 |
| 20260508151712 | 58 | 15 | 3.0 | 3.0 | 0.00 | 0.00 | 0.00 | 31 | 986.6 |
| 20260508151209 | 57 | 305 | 3.0 | 3.0 | 0.00 | 0.00 | 0.00 | 33 | 986.5 |
| 20260508150705 | 58 | 279 | 2.0 | 3.0 | 0.00 | 0.00 | 0.00 | 35 | 986.6 |
| 20260508150202 | 59 | 190 | 4.0 | 5.0 | 0.00 | 0.00 | 0.00 | 34 | 986.7 |
| 20260508145658 | 59 | 243 | 3.0 | 3.0 | 0.00 | 0.00 | 0.00 | 34 | 986.8 |
| 20260508145154 | 57 | 270 | 1.0 | 2.0 | 0.00 | 0.00 | 0.00 | 35 | 986.8 |
| 20260508144652 | 57 | 246 | 3.0 | 3.0 | 0.00 | 0.00 | 0.00 | 38 | 986.7 |
| 20260508144149 | 57 | 337 | 2.0 | 3.0 | 0.00 | 0.00 | 0.00 | 35 | 986.6 |
| 20260508143647 | 56 | 0 | 2.0 | 5.0 | 0.00 | 0.00 | 0.00 | 35 | 986.9 |
| 20260508143144 | 55 | 40 | 2.0 | 3.0 | 0.00 | 0.00 | 0.00 | 36 | 986.8 |
| 20260508142640 | 55 | 302 | 3.0 | 3.0 | 0.00 | 0.00 | 0.00 | 37 | 986.9 |
| 20260508142137 | 55 | 196 | 3.0 | 5.0 | 0.00 | 0.00 | 0.00 | 40 | 986.9 |
| 20260508141633 | 55 | 297 | 1.0 | 6.0 | 0.00 | 0.00 | 0.00 | 40 | 986.8 |
| 20260508141131 | 56 | 81 | 0.0 | 2.0 | 0.00 | 0.00 | 0.00 | 43 | 986.9 |
| 20260508140628 | 55 | 332 | 2.0 | 3.0 | 0.00 | 0.00 | 0.00 | 44 | 986.8 |
| 20260508140125 | 55 | 283 | 1.0 | 4.0 | 0.00 | 0.00 | 0.00 | 47 | 986.9 |
| 20260508135620 | 54 | 160 | 0.0 | 3.0 | 0.00 | 0.00 | 0.00 | 46 | 986.9 |
| 20260508135116 | 55 | 294 | 0.0 | 2.0 | 0.00 | 0.00 | 0.00 | 45 | 987.0 |
| 20260508134614 | 52 | 280 | 2.0 | 3.0 | 0.00 | 0.00 | 0.00 | 46 | 987.1 |
| 20260508134111 | 53 | 66 | 4.0 | 4.0 | 0.00 | 0.00 | 0.00 | 46 | 987.2 |
| 20260508133607 | 52 | 157 | 2.0 | 4.0 | 0.00 | 0.00 | 0.00 | 50 | 987.2 |
| 20260508133105 | 52 | 111 | 0.0 | 3.0 | 0.00 | 0.00 | 0.00 | 50 | 987.2 |
| 20260508132602 | 52 | 45 | 3.0 | 4.0 | 0.00 | 0.00 | 0.00 | 55 | 987.1 |
| 20260508132059 | 52 | 180 | 0.0 | 1.0 | 0.00 | 0.00 | 0.00 | 55 | 987.2 |
| 20260508131554 | 51 | 5 | 0.0 | 3.0 | 0.00 | 0.00 | 0.00 | 56 | 987.1 |
| 20260508131051 | 50 | 0 | 0.0 | 2.0 | 0.00 | 0.00 | 0.00 | 55 | 987.2 |
| 20260508130548 | 50 | 290 | 0.0 | 3.0 | 0.00 | 0.00 | 0.00 | 53 | 987.4 |
| 20260508130045 | 51 | 97 | 0.0 | 2.0 | 0.00 | 0.00 | 0.00 | 56 | 987.1 |
| 20260508125540 | 50 | 165 | 0.0 | 3.0 | 0.00 | 0.00 | 0.00 | 54 | 987.2 |
| 20260508125038 | 49 | 201 | 2.0 | 3.0 | 0.00 | 0.00 | 0.00 | 61 | 987.2 |
| 20260508124536 | 51 | 187 | 0.0 | 2.0 | 0.00 | 0.00 | 0.00 | 64 | 987.3 |
| 20260508124033 | 50 | 185 | 1.0 | 2.0 | 0.00 | 0.00 | 0.00 | 67 | 987.2 |
| 20260508123531 | 48 | 114 | 0.0 | 2.0 | 0.00 | 0.00 | 0.00 | 73 | 987.3 |
| 20260508123028 | 46 | 149 | 3.0 | 5.0 | 0.00 | 0.00 | 0.00 | 74 | 987.1 |
| 20260508122525 | 45 | 185 | 0.0 | 3.0 | 0.00 | 0.00 | 0.00 | 74 | 987.2 |
| 20260508122022 | 44 | 180 | 2.0 | 2.0 | 0.00 | 0.00 | 0.00 | 77 | 987.0 |
| 20260508121520 | 44 | 180 | 1.0 | 2.0 | 0.00 | 0.00 | 0.00 | 80 | 987.0 |
| 20260508121018 | 44 | 143 | 0.0 | 2.0 | 0.00 | 0.00 | 0.00 | 80 | 987.0 |
| 20260508120514 | 43 | 168 | 1.0 | 1.0 | 0.00 | 0.00 | 0.00 | 84 | 986.8 |
| 20260508120013 | 43 | 123 | 1.0 | 2.0 | 0.00 | 0.00 | 0.00 | 89 | 986.8 |
| 20260508115510 | 41 | 110 | 2.0 | 2.0 | 0.00 | 0.00 | 0.00 | 92 | 986.7 |
| 20260508115006 | 39 | 99 | 2.0 | 3.0 | 0.00 | 0.00 | 0.00 | 94 | 986.8 |
| 20260508114504 | 39 | 84 | 1.0 | 2.0 | 0.00 | 0.00 | 0.00 | 95 | 986.7 |
| 20260508114000 | 39 | 90 | 1.0 | 2.0 | 0.00 | 0.00 | 0.00 | 96 | 986.7 |
| 20260508113458 | 38 | 117 | 2.0 | 2.0 | 0.00 | 0.00 | 0.00 | 96 | 986.4 |
| 20260508112955 | 37 | 110 | 2.0 | 2.0 | 0.00 | 0.00 | 0.00 | 96 | 986.5 |
| 20260508112451 | 36 | 102 | 1.0 | 2.0 | 0.00 | 0.00 | 0.00 | 96 | 986.4 |
| 20260508111948 | 36 | 95 | 2.0 | 2.0 | 0.00 | 0.00 | 0.00 | 96 | 986.4 |
| 20260508111445 | 36 | 99 | 2.0 | 3.0 | 0.00 | 0.00 | 0.00 | 96 | 986.4 |
| 20260508110942 | 36 | 90 | 1.0 | 2.0 | 0.00 | 0.00 | 0.00 | 96 | 986.6 |
| 20260508110440 | 35 | 90 | 2.0 | 2.0 | 0.00 | 0.00 | 0.00 | 96 | 986.5 |
| 20260508105939 | 35 | 99 | 2.0 | 2.0 | 0.00 | 0.00 | 0.00 | 96 | 986.4 |
| 20260508105436 | 35 | 90 | 0.0 | 2.0 | 0.00 | 0.00 | 0.00 | 96 | 986.2 |
| 20260508104933 | 35 | 106 | 2.0 | 3.0 | 0.00 | 0.00 | 0.00 | 96 | 986.2 |
| 20260508104431 | 34 | 103 | 1.0 | 2.0 | 0.00 | 0.00 | 0.00 | 96 | 986.4 |
| 20260508103927 | 34 | 101 | 3.0 | 3.0 | 0.00 | 0.00 | 0.00 | 95 | 986.4 |
| 20260508103424 | 34 | 99 | 2.0 | 3.0 | 0.00 | 0.00 | 0.00 | 95 | 986.1 |
| 20260508102921 | 34 | 99 | 3.0 | 3.0 | 0.00 | 0.00 | 0.00 | 95 | 986.2 |
| 20260508102420 | 35 | 110 | 2.0 | 3.0 | 0.00 | 0.00 | 0.00 | 95 | 986.4 |
| 20260508101916 | 35 | 95 | 2.0 | 2.0 | 0.00 | 0.00 | 0.00 | 95 | 986.2 |
| 20260508101414 | 35 | 90 | 2.0 | 3.0 | 0.00 | 0.00 | 0.00 | 95 | 986.4 |
| 20260508100911 | 35 | 90 | 1.0 | 2.0 | 0.00 | 0.00 | 0.00 | 95 | 986.2 |
| 20260508100410 | 35 | 97 | 1.0 | 2.0 | 0.00 | 0.00 | 0.00 | 95 | 986.4 |
| 20260508095911 | 35 | 90 | 2.0 | 2.0 | 0.00 | 0.00 | 0.00 | 94 | 986.5 |
| 20260508095409 | 35 | 83 | 1.0 | 2.0 | 0.00 | 0.00 | 0.00 | 94 | 986.6 |
| 20260508094905 | 35 | 117 | 3.0 | 3.0 | 0.00 | 0.00 | 0.00 | 94 | 986.4 |
| 20260508094402 | 35 | 120 | 1.0 | 2.0 | 0.00 | 0.00 | 0.00 | 94 | 986.5 |
| 20260508093859 | 35 | 120 | 1.0 | 2.0 | 0.00 | 0.00 | 0.00 | 94 | 986.5 |
| 20260508093356 | 35 | 85 | 2.0 | 2.0 | 0.00 | 0.00 | 0.00 | 94 | 986.6 |
| 20260508092854 | 36 | 66 | 1.0 | 2.0 | 0.00 | 0.00 | 0.00 | 94 | 986.7 |
| 20260508092351 | 36 | 77 | 1.0 | 2.0 | 0.00 | 0.00 | 0.00 | 93 | 986.6 |
| 20260508091850 | 36 | 73 | 2.0 | 2.0 | 0.00 | 0.00 | 0.00 | 93 | 986.6 |
| 20260508091346 | 36 | 90 | 2.0 | 2.0 | 0.00 | 0.00 | 0.00 | 93 | 986.5 |
| 20260508090844 | 36 | 96 | 2.0 | 3.0 | 0.00 | 0.00 | 0.00 | 92 | 986.6 |
| 20260508090343 | 37 | 102 | 2.0 | 2.0 | 0.00 | 0.00 | 0.00 | 91 | 986.7 |
| 20260508085843 | 37 | 115 | 2.0 | 3.0 | 0.00 | 0.00 | 0.00 | 91 | 986.7 |
| 20260508085340 | 37 | 99 | 2.0 | 2.0 | 0.00 | 0.00 | 0.00 | 90 | 986.7 |
| 20260508084836 | 37 | 99 | 2.0 | 2.0 | 0.00 | 0.00 | 0.00 | 89 | 986.6 |
| 20260508084333 | 38 | 99 | 2.0 | 2.0 | 0.00 | 0.00 | 0.00 | 88 | 986.8 |
| 20260508083832 | 38 | 105 | 0.0 | 2.0 | 0.00 | 0.00 | 0.00 | 88 | 986.7 |
| 20260508083329 | 38 | 90 | 1.0 | 1.0 | 0.00 | 0.00 | 0.00 | 87 | 986.6 |
| 20260508082828 | 38 | 90 | 1.0 | 1.0 | 0.00 | 0.00 | 0.00 | 86 | 986.6 |
| 20260508082326 | 39 | 96 | 2.0 | 2.0 | 0.00 | 0.00 | 0.00 | 86 | 986.7 |
| 20260508081823 | 39 | 83 | 1.0 | 2.0 | 0.00 | 0.00 | 0.00 | 85 | 986.6 |
| 20260508081320 | 39 | 126 | 1.0 | 1.0 | 0.00 | 0.00 | 0.00 | 85 | 986.7 |
| 20260508080817 | 39 | 90 | 1.0 | 1.0 | 0.00 | 0.00 | 0.00 | 84 | 986.7 |
| 20260508080315 | 40 | 57 | 1.0 | 2.0 | 0.00 | 0.00 | 0.00 | 84 | 986.6 |
| 20260508075811 | 40 | 135 | 0.0 | 2.0 | 0.00 | 0.00 | 0.00 | 84 | 986.2 |
| 20260508075309 | 40 | 114 | 0.0 | 2.0 | 0.00 | 0.00 | 0.00 | 83 | 986.5 |
| 20260508074806 | 40 | 105 | 0.0 | 2.0 | 0.00 | 0.00 | 0.00 | 82 | 986.5 |
| 20260508074302 | 40 | 115 | 2.0 | 2.0 | 0.00 | 0.00 | 0.00 | 82 | 986.6 |
| 20260508073800 | 41 | 49 | 0.0 | 0.0 | 0.00 | 0.00 | 0.00 | 82 | 986.7 |
| 20260508073258 | 41 | 51 | 2.0 | 3.0 | 0.00 | 0.00 | 0.00 | 82 | 986.4 |
| 20260508072753 | 41 | 90 | 0.0 | 0.0 | 0.00 | 0.00 | 0.00 | 81 | 986.4 |
| 20260508072250 | 41 | 66 | 0.0 | 1.0 | 0.00 | 0.00 | 0.00 | 81 | 986.4 |
| 20260508071748 | 41 | 106 | 0.0 | 2.0 | 0.00 | 0.00 | 0.00 | 80 | 986.2 |
| 20260508071246 | 42 | 100 | 2.0 | 2.0 | 0.00 | 0.00 | 0.00 | 80 | 986.5 |
| 20260508070743 | 42 | 94 | 2.0 | 3.0 | 0.00 | 0.00 | 0.00 | 80 | 986.4 |
| 20260508070242 | 42 | 98 | 0.0 | 2.0 | 0.00 | 0.00 | 0.00 | 80 | 986.6 |
| 20260508065738 | 42 | 97 | 0.0 | 3.0 | 0.00 | 0.00 | 0.00 | 79 | 986.5 |
| 20260508065236 | 42 | 82 | 2.0 | 2.0 | 0.00 | 0.00 | 0.00 | 81 | 986.5 |
| 20260508064734 | 42 | 75 | 2.0 | 3.0 | 0.00 | 0.00 | 0.00 | 80 | 986.7 |
| 20260508064232 | 42 | 102 | 1.0 | 2.0 | 0.00 | 0.00 | 0.00 | 79 | 986.7 |
| 20260508063729 | 42 | 106 | 0.0 | 2.0 | 0.00 | 0.00 | 0.00 | 79 | 986.6 |
| 20260508063227 | 42 | 111 | 3.0 | 3.0 | 0.00 | 0.00 | 0.00 | 79 | 986.8 |
| 20260508062724 | 43 | 94 | 3.0 | 3.0 | 0.00 | 0.00 | 0.00 | 78 | 986.9 |
| 20260508062221 | 42 | 74 | 0.0 | 2.0 | 0.00 | 0.00 | 0.00 | 77 | 986.9 |
| 20260508061718 | 42 | 40 | 0.0 | 1.0 | 0.00 | 0.00 | 0.00 | 78 | 987.0 |
| 20260508061215 | 42 | 90 | 1.0 | 2.0 | 0.00 | 0.00 | 0.00 | 79 | 987.1 |
| 20260508060712 | 42 | 79 | 0.0 | 2.0 | 0.00 | 0.00 | 0.00 | 78 | 986.9 |
| 20260508060209 | 42 | 85 | 2.0 | 3.0 | 0.00 | 0.00 | 0.00 | 77 | 987.0 |
| 20260508055705 | 42 | 78 | 2.0 | 3.0 | 0.00 | 0.00 | 0.00 | 76 | 987.0 |
| 20260508055202 | 42 | 63 | 1.0 | 2.0 | 0.00 | 0.00 | 0.00 | 77 | 987.2 |
| 20260508054658 | 42 | 15 | 0.0 | 0.0 | 0.00 | 0.00 | 0.00 | 77 | 987.1 |
| 20260508054156 | 42 | 0 | 1.0 | 2.0 | 0.00 | 0.00 | 0.00 | 78 | 987.0 |
| 20260508053653 | 43 | 175 | 0.0 | 3.0 | 0.00 | 0.00 | 0.00 | 77 | 986.8 |
| 20260508053150 | 43 | 120 | 0.0 | 5.0 | 0.00 | 0.00 | 0.00 | 74 | 986.7 |
| 20260508052647 | 43 | 119 | 2.0 | 4.0 | 0.00 | 0.00 | 0.00 | 74 | 987.4 |
| 20260508052144 | 43 | 4 | 2.0 | 3.0 | 0.00 | 0.00 | 0.00 | 77 | 987.4 |
| 20260508051641 | 43 | 90 | 2.0 | 3.0 | 0.00 | 0.00 | 0.00 | 77 | 987.1 |
| 20260508051136 | 43 | 101 | 2.0 | 3.0 | 0.00 | 0.00 | 0.00 | 76 | 987.0 |
| 20260508050632 | 43 | 85 | 2.0 | 2.0 | 0.00 | 0.00 | 0.00 | 76 | 987.0 |
| 20260508050130 | 43 | 114 | 0.0 | 3.0 | 0.00 | 0.00 | 0.00 | 72 | 987.0 |
| 20260508045626 | 42 | 90 | 2.0 | 2.0 | 0.00 | 0.00 | 0.00 | 73 | 987.2 |
| 20260508045124 | 42 | 77 | 1.0 | 3.0 | 0.00 | 0.00 | 0.00 | 77 | 987.3 |
| 20260508044621 | 43 | 84 | 2.0 | 2.0 | 0.00 | 0.00 | 0.00 | 77 | 987.1 |
| 20260508044117 | 43 | 90 | 0.0 | 0.0 | 0.00 | 0.00 | 0.00 | 74 | 987.1 |
| 20260508043614 | 43 | 168 | 0.0 | 1.0 | 0.00 | 0.00 | 0.00 | 74 | 987.0 |
| 20260508043112 | 43 | 81 | 2.0 | 3.0 | 0.00 | 0.00 | 0.00 | 75 | 987.0 |
| 20260508042608 | 42 | 105 | 0.0 | 2.0 | 0.00 | 0.00 | 0.00 | 77 | 987.1 |
| 20260508042105 | 42 | 60 | 0.0 | 2.0 | 0.00 | 0.00 | 0.00 | 78 | 987.2 |
| 20260508041601 | 41 | 32 | 3.0 | 3.0 | 0.00 | 0.00 | 0.00 | 78 | 987.5 |
| 20260508041058 | 41 | 0 | 0.0 | 1.0 | 0.00 | 0.00 | 0.00 | 78 | 987.1 |
| 20260508040554 | 41 | 270 | 0.0 | 1.0 | 0.00 | 0.00 | 0.00 | 77 | 987.0 |
| 20260508040053 | 41 | 114 | 0.0 | 0.0 | 0.00 | 0.00 | 0.00 | 79 | 986.9 |
| 20260508035549 | 42 | 114 | 0.0 | 1.0 | 0.00 | 0.00 | 0.00 | 78 | 986.9 |
| 20260508035046 | 42 | 111 | 0.0 | 1.0 | 0.00 | 0.00 | 0.00 | 76 | 986.8 |
| 20260508034543 | 42 | 154 | 1.0 | 2.0 | 0.00 | 0.00 | 0.00 | 74 | 986.7 |
| 20260508034040 | 42 | 75 | 1.0 | 1.0 | 0.00 | 0.00 | 0.00 | 75 | 986.8 |
| 20260508033538 | 42 | 106 | 0.0 | 1.0 | 0.00 | 0.00 | 0.00 | 74 | 986.8 |
| 20260508033036 | 42 | 82 | 0.0 | 1.0 | 0.00 | 0.00 | 0.00 | 74 | 986.7 |
| 20260508032532 | 42 | 74 | 0.0 | 0.0 | 0.00 | 0.00 | 0.00 | 76 | 986.8 |
| 20260508032030 | 42 | 103 | 1.0 | 2.0 | 0.00 | 0.00 | 0.00 | 76 | 986.6 |
| 20260508031527 | 42 | 103 | 2.0 | 2.0 | 0.00 | 0.00 | 0.00 | 76 | 986.5 |
| 20260508031022 | 42 | 107 | 2.0 | 2.0 | 0.00 | 0.00 | 0.00 | 76 | 986.6 |
| 20260508030520 | 42 | 82 | 0.0 | 1.0 | 0.00 | 0.00 | 0.00 | 76 | 986.8 |
| 20260508030018 | 42 | 128 | 0.0 | 2.0 | 0.00 | 0.00 | 0.00 | 77 | 986.8 |
| 20260508025513 | 42 | 103 | 2.0 | 2.0 | 0.00 | 0.00 | 0.00 | 74 | 987.1 |
| 20260508025010 | 43 | 90 | 1.0 | 2.0 | 0.00 | 0.00 | 0.00 | 73 | 987.1 |
| 20260508024506 | 43 | 103 | 0.0 | 1.0 | 0.00 | 0.00 | 0.00 | 72 | 987.0 |
| 20260508024003 | 43 | 83 | 1.0 | 2.0 | 0.00 | 0.00 | 0.00 | 71 | 987.1 |
| 20260508023500 | 43 | 60 | 0.0 | 2.0 | 0.00 | 0.00 | 0.00 | 72 | 987.1 |
| 20260508022957 | 43 | 83 | 1.0 | 2.0 | 0.00 | 0.00 | 0.00 | 70 | 987.1 |
| 20260508022453 | 44 | 157 | 0.0 | 0.0 | 0.00 | 0.00 | 0.00 | 70 | 987.0 |
| 20260508021949 | 44 | 157 | 0.0 | 0.0 | 0.00 | 0.00 | 0.00 | 70 | 987.2 |
| 20260508021446 | 44 | 165 | 0.0 | 1.0 | 0.00 | 0.00 | 0.00 | 69 | 987.1 |
| 20260508020942 | 44 | 192 | 0.0 | 1.0 | 0.00 | 0.00 | 0.00 | 68 | 986.9 |
| 20260508020440 | 44 | 165 | 0.0 | 0.0 | 0.00 | 0.00 | 0.00 | 66 | 987.0 |
| 20260508015937 | 45 | 114 | 0.0 | 0.0 | 0.00 | 0.00 | 0.00 | 63 | 986.7 |
| 20260508015435 | 45 | 98 | 1.0 | 1.0 | 0.00 | 0.00 | 0.00 | 62 | 986.8 |
| 20260508014931 | 46 | 166 | 1.0 | 2.0 | 0.00 | 0.00 | 0.00 | 61 | 986.9 |
| 20260508014428 | 46 | 75 | 0.0 | 0.0 | 0.00 | 0.00 | 0.00 | 60 | 986.9 |
| 20260508013923 | 46 | 286 | 0.0 | 0.0 | 0.00 | 0.00 | 0.00 | 59 | 986.8 |
| 20260508013420 | 47 | 286 | 0.0 | 0.0 | 0.00 | 0.00 | 0.00 | 58 | 986.8 |
| 20260508012917 | 47 | 286 | 0.0 | 0.0 | 0.00 | 0.00 | 0.00 | 57 | 986.8 |
| 20260508012414 | 47 | 300 | 0.0 | 1.0 | 0.00 | 0.00 | 0.00 | 56 | 986.6 |
| 20260508011912 | 48 | 45 | 2.0 | 7.0 | 0.00 | 0.00 | 0.00 | 55 | 986.7 |
| 20260508011410 | 48 | 286 | 0.0 | 2.0 | 0.00 | 0.00 | 0.00 | 54 | 986.6 |
| 20260508010907 | 48 | 332 | 2.0 | 3.0 | 0.00 | 0.00 | 0.00 | 54 | 986.4 |
| 20260508010404 | 48 | 282 | 0.0 | 3.0 | 0.00 | 0.00 | 0.00 | 53 | 986.5 |
| 20260508005901 | 49 | 353 | 0.0 | 3.0 | 0.00 | 0.00 | 0.00 | 52 | 986.5 |
| 20260508005357 | 49 | 339 | 2.0 | 4.0 | 0.00 | 0.00 | 0.00 | 51 | 986.4 |
| 20260508004854 | 49 | 292 | 0.0 | 3.0 | 0.00 | 0.00 | 0.00 | 51 | 986.4 |
| 20260508004350 | 49 | 320 | 0.0 | 3.0 | 0.00 | 0.00 | 0.00 | 51 | 986.0 |
| 20260508003847 | 49 | 53 | 2.0 | 3.0 | 0.00 | 0.00 | 0.00 | 50 | 986.1 |
| 20260508003344 | 49 | 294 | 1.0 | 2.0 | 0.00 | 0.00 | 0.00 | 48 | 986.0 |
| 20260508002841 | 50 | 0 | 2.0 | 2.0 | 0.00 | 0.00 | 0.00 | 49 | 986.0 |
| 20260508002338 | 50 | 11 | 1.0 | 4.0 | 0.00 | 0.00 | 0.00 | 47 | 986.0 |
| 20260508001834 | 50 | 291 | 0.0 | 3.0 | 0.00 | 0.00 | 0.00 | 48 | 986.1 |
| 20260508001330 | 50 | 188 | 0.0 | 2.0 | 0.00 | 0.00 | 0.00 | 47 | 986.4 |
| 20260508000826 | 50 | 28 | 0.0 | 3.0 | 0.00 | 0.00 | 0.00 | 46 | 986.2 |